[[{"header":{"parameterUnit":"m.s-1","parameterCategory":1,"la1":30.2991,"la2":30.254,"lo1":-89.0895,"lo2":-89.0444,"dy":0.0017,"dx":0.0017,"nx":28,"ny":28,"refTime":"2024-03-19T09:00:00:Z","depth":0,"parameterNumber":2,"parameterNumberName":"U-component_of_WINDS"},"data":[0,0,0,0,0,0,0,0,0,0,0,0,0,0,0,0,0,0,0,0,0,0,0,0,0,0,0,0,0,0,0,0,0,0,0,0,0,0,0,0,0,0,0,0,0,0,0,0,0,0,0,0,0,0,0,0,0,0,-1.5033,-1.5034,0,-1.5105,-1.5105,-1.5106,-1.5067,-1.5066,-1.5064,-1.5062,-1.5136,-1.514,-1.5144,0,0,0,0,0,0,0,0,0,0,0,0,0,-1.4863,-1.4866,-1.5033,-1.5034,-1.5035,-1.5105,-1.5106,-1.5106,-1.5068,-1.5065,-1.5063,-1.5061,-1.5135,-1.514,-1.5144,0,0,0,0,0,0,0,0,0,0,0,0,0,-1.4936,-1.4867,-1.5033,-1.5024,-1.5024,-1.5104,-1.5106,-1.5107,-1.5068,-1.5065,-1.5062,-1.506,-1.5134,-1.5139,-1.5145,-1.5239,0,0,-1.5162,-1.5165,0,0,0,0,0,0,0,0,-1.4932,-1.4942,-1.5024,-1.5025,-1.5025,-1.5074,-1.5073,-1.5151,-1.5069,-1.5051,-1.5062,-1.5058,-1.5118,-1.5125,-1.5145,-1.5242,-1.5245,-1.5163,-1.5166,-1.5169,-1.517,0,0,0,0,0,0,0,-1.4927,-1.4939,-1.5061,-1.5026,-1.5026,-1.5016,-1.5023,-1.5088,-1.51,-1.5053,-1.505,-1.5059,-1.5118,-1.5139,-1.5146,-1.5246,-1.5163,-1.5168,-1.5171,-1.5173,-1.5424,-1.5427,0,0,0,0,0,0,-1.4922,-1.4935,-1.5059,-1.5064,-1.497,-1.5022,-1.503,-1.5061,-1.51,-1.5103,-1.5061,-1.5057,-1.5131,-1.514,-1.5149,-1.5262,-1.5169,-1.5174,-1.5177,-1.5421,-1.5425,-1.5428,0,0,0,0,0,0,-1.4919,-1.4934,-1.5056,-1.4999,-1.5013,-1.5028,-1.5063,-1.5064,-1.5086,-1.5106,-1.5108,-1.5081,-1.5129,-1.5141,-1.5216,-1.5264,-1.5177,-1.5182,-1.5417,-1.5422,-1.5426,-1.5488,0,0,0,0,0,0,-1.4914,-1.4933,-1.4969,-1.5,-1.5017,-1.5123,-1.5066,-1.5068,-1.5096,-1.5091,-1.5125,-1.5128,-1.5128,-1.5208,-1.5222,-1.527,-1.5186,-1.5413,-1.5419,-1.5425,-1.5482,-1.5494,-1.5505,0,0,0,0,0,-1.4908,-1.4984,-1.4971,-1.4986,-1.5062,-1.5126,-1.5136,-1.5133,-1.51,-1.5136,-1.5149,-1.5127,-1.5256,-1.5216,-1.5232,-1.5282,-1.541,-1.5417,-1.5424,-1.5477,-1.5492,-1.5505,0,0,0,0,0,0,-1.4959,-1.4988,-1.4974,-1.5061,-1.5091,-1.5119,-1.5165,-1.5149,-1.519,-1.5183,-1.5178,-1.5186,-1.5265,-1.5281,-1.5236,-1.5374,-1.5328,-1.5338,-1.5362,-1.5377,-1.5388,-1.5384,-1.5191,0,0,0,0,0,-1.498,-1.5029,-1.5051,-1.5127,-1.5142,-1.5151,-1.5179,-1.5174,-1.5205,-1.5218,-1.5236,-1.5267,-1.5315,-1.5346,-1.5391,-1.5483,-1.549,-1.5525,-1.5536,-1.5546,-1.5556,-1.5606,-1.5622,-1.5452,-1.5452,-1.5452,0,0,-1.5024,-1.5046,-1.5078,-1.5137,-1.516,-1.5212,-1.5162,-1.5219,-1.5257,-1.5226,-1.53,-1.5314,-1.5348,-1.5433,-1.5471,-1.5448,-1.5604,-1.5555,-1.5563,-1.5568,-1.5615,-1.5631,-1.5645,-1.5457,-1.5456,-1.5455,0,0,-1.5133,-1.5153,-1.5219,-1.5242,-1.5276,-1.5282,-1.5297,-1.5327,-1.5335,-1.5408,-1.5386,-1.5431,-1.5513,-1.5538,-1.5562,-1.5677,-1.5659,-1.5692,-1.5753,-1.5802,-1.5816,-1.5827,-1.587,-1.5885,-1.5701,-1.5701,-1.5701,0,-1.5184,-1.5261,-1.5254,-1.5312,-1.5339,-1.5313,-1.5379,-1.5401,-1.5449,-1.5469,-1.5442,-1.5543,-1.5564,-1.5655,-1.5683,-1.5702,-1.572,-1.5689,-1.5814,-1.5826,-1.5837,-1.5877,-1.5893,-1.5705,-1.5705,-1.5704,-1.5704,0,-1.5322,-1.5376,-1.5424,-1.547,-1.5502,-1.5564,-1.5567,-1.56,-1.5591,-1.5599,-1.5673,-1.5697,-1.5747,-1.5767,-1.576,-1.5856,-1.5841,-1.5814,-1.5767,-1.5857,-1.5895,-1.591,-1.5711,-1.5709,-1.5708,-1.5707,0,0,-1.5467,-1.5507,-1.5525,-1.5546,-1.5581,-1.5622,-1.5682,-1.573,-1.5758,-1.5791,-1.5842,-1.5911,-1.5886,-1.5913,-1.5908,-1.595,-1.6041,-1.5918,-1.5919,-1.5941,-1.6149,-1.6171,-1.6189,-1.6028,-1.6031,-1.6033,-1.6147,0,-1.5579,-1.5684,-1.5679,-1.5778,-1.5827,-1.5801,-1.5853,-1.5881,-1.5889,-1.5932,-1.594,-1.599,-1.5953,-1.5969,-1.6009,-1.6021,-1.6083,-1.6013,-1.6076,-1.6078,-1.6071,-1.6208,-1.6231,-1.6338,-1.6161,-1.6164,-1.6166,0,-1.5724,-1.5761,-1.5865,-1.5892,-1.5912,-1.5959,-1.6002,-1.6043,-1.6073,-1.6076,-1.6105,-1.6092,-1.6153,-1.6103,-1.6186,-1.6139,-1.6164,-1.6173,-1.6177,-1.6185,-1.6129,-1.6221,-1.6371,-1.6388,-1.6189,-1.6187,-1.6185,0,-1.5821,-1.5896,-1.5968,-1.5986,-1.6019,-1.6053,-1.6069,-1.6096,-1.6124,-1.6161,-1.6179,-1.6223,-1.6247,-1.6281,-1.6281,-1.6244,-1.6366,-1.6315,-1.637,-1.6371,-1.6399,-1.6398,-1.6558,-1.6412,-1.6412,-1.6412,-1.6411,0,-1.5947,-1.6012,-1.6012,-1.6057,-1.6128,-1.6121,-1.6192,-1.6204,-1.6228,-1.6274,-1.6253,-1.6297,-1.6293,-1.6337,-1.6336,-1.6406,-1.6417,-1.6421,-1.6421,-1.6425,-1.6424,-1.6443,-1.6436,-1.6416,-1.6415,-1.6414,-1.6414,0,-1.6069,-1.6071,-1.6148,-1.6172,-1.618,-1.6232,-1.6253,-1.6295,-1.63,-1.6359,-1.6372,-1.6381,-1.6432,-1.6433,-1.6492,-1.6491,-1.6577,-1.6567,-1.6567,-1.6566,-1.6622,-1.6617,-1.6801,-1.6825,-1.6662,-1.6663,-1.6665,0,-1.615,-1.6199,-1.6229,-1.6258,-1.6275,-1.6322,-1.6351,-1.6345,-1.6376,-1.6413,-1.6451,-1.6499,-1.6538,-1.662,-1.6632,-1.6676,-1.6668,-1.6729,-1.6675,-1.6677,-1.6671,-1.6669,-1.6674,-1.6741,-1.6742,-1.6744,-1.6745,0,-1.6295,-1.6294,-1.6336,-1.6378,-1.6413,-1.6446,-1.6476,-1.6501,-1.6499,-1.6534,-1.6586,-1.6616,-1.6674,-1.6723,-1.6766,-1.6781,-1.6764,-1.6761,-1.6777,-1.6782,-1.6781,-1.6784,-1.6598,-1.6758,-1.6757,-1.6756,-1.6755,-1.6755,-1.6401,-1.6443,-1.647,-1.6517,-1.6539,-1.6568,-1.6609,-1.6619,-1.6661,-1.6709,-1.6702,-1.6759,-1.6787,-1.6842,-1.6861,-1.6905,-1.6885,-1.6907,-1.6913,-1.6919,-1.6925,-1.6772,-1.6913,-1.6913,-1.6912,-1.6912,-1.6912,0,-1.6546,-1.6562,-1.6605,-1.6648,-1.6685,-1.6663,-1.6695,-1.6728,-1.6779,-1.6805,-1.6843,-1.6902,-1.6948,-1.6963,-1.7008,-1.7041,-1.7034,-1.7053,-1.7052,-1.7056,-1.6941,-1.6924,-1.7058,-1.7058,-1.7058,-1.7058,-1.7058,-1.7058,-1.6626,-1.6697,-1.6698,-1.6779,-1.6794,-1.685,-1.6871,-1.6897,-1.6918,-1.6984,-1.7023,-1.7031,-1.7053,-1.7099,-1.7141,-1.7144,-1.7162,-1.7185,-1.7185,-1.7078,-1.7064,-1.705,-1.7034,-1.7189,-1.7189,-1.7296,-1.7297,-1.7298]},{"header":{"parameterUnit":"m.s-1","parameterCategory":1,"la1":30.2991,"la2":30.254,"lo1":-89.0895,"lo2":-89.0444,"dy":0.0017,"dx":0.0017,"nx":28,"ny":28,"refTime":"2024-03-19T09:00:00:Z","depth":0,"parameterNumber":3,"parameterNumberName":"V-component_of_WINDS"},"data":[0,0,0,0,0,0,0,0,0,0,0,0,0,0,0,0,0,0,0,0,0,0,0,0,0,0,0,0,0,0,0,0,0,0,0,0,0,0,0,0,0,0,0,0,0,0,0,0,0,0,0,0,0,0,0,0,0,0,-6.9838,-6.984,0,-6.9991,-6.9992,-6.9994,-6.9863,-6.9858,-6.9853,-6.9848,-7.0001,-7.001,-7.0019,0,0,0,0,0,0,0,0,0,0,0,0,0,-6.943,-6.9438,-6.9838,-6.984,-6.9842,-6.999,-6.9992,-6.9994,-6.9864,-6.9858,-6.9851,-6.9845,-6.9998,-7.0008,-7.0019,0,0,0,0,0,0,0,0,0,0,0,0,0,-6.9597,-6.9441,-6.9837,-6.9795,-6.9792,-6.999,-6.9992,-6.9995,-6.9866,-6.9858,-6.985,-6.9842,-6.9994,-7.0007,-7.0021,-7.0267,0,0,-7.0063,-7.0069,0,0,0,0,0,0,0,0,-6.9588,-6.9612,-6.9799,-6.9798,-6.9796,-6.99,-6.9904,-7.0086,-6.9868,-6.9838,-6.9847,-6.9838,-6.9973,-6.9988,-7.0035,-7.0275,-7.0281,-7.0064,-7.0072,-7.0078,-7.0082,0,0,0,0,0,0,0,-6.9576,-6.9605,-6.9898,-6.9802,-6.98,-6.9767,-6.9781,-6.9938,-6.9949,-6.984,-6.9831,-6.9851,-6.9971,-7.0022,-7.0037,-7.0283,-7.0063,-7.0076,-7.0084,-7.0089,-7.0732,-7.0741,0,0,0,0,0,0,-6.957,-6.9596,-6.9893,-6.9903,-6.967,-6.9781,-6.9797,-6.9875,-6.9947,-6.995,-6.9858,-6.9844,-7.0002,-7.0021,-7.0042,-7.0336,-7.0078,-7.0091,-7.0099,-7.0724,-7.0734,-7.0744,0,0,0,0,0,0,-6.9561,-6.9597,-6.9887,-6.9747,-6.9781,-6.9796,-6.9884,-6.9882,-6.9933,-6.9961,-6.9961,-6.9908,-6.9997,-7.0023,-7.0213,-7.0339,-7.0097,-7.0109,-7.0713,-7.0727,-7.0739,-7.0926,0,0,0,0,0,0,-6.955,-6.9595,-6.969,-6.975,-6.9789,-7.0057,-6.9892,-6.9891,-6.9957,-6.9941,-7.0008,-7.0011,-6.9992,-7.0193,-7.0226,-7.0354,-7.012,-7.0702,-7.0719,-7.0735,-7.0908,-7.0944,-7.0974,0,0,0,0,0,-6.9536,-6.9736,-6.9696,-6.9732,-6.9909,-7.0065,-7.0087,-7.0062,-6.9968,-7.0063,-7.008,-7.0009,-7.032,-7.0213,-7.025,-7.0383,-7.0694,-7.0714,-7.0734,-7.0893,-7.0937,-7.0973,0,0,0,0,0,0,-6.969,-6.9743,-6.9699,-6.9925,-6.9991,-7.0042,-7.0161,-7.0109,-7.0202,-7.0183,-7.0147,-7.0163,-7.0364,-7.0392,-7.0272,-7.0625,-7.0491,-7.052,-7.06,-7.0642,-7.0674,-7.0664,-7.0131,0,0,0,0,0,-6.975,-6.9873,-6.9912,-7.0108,-7.0143,-7.0147,-7.0214,-7.0189,-7.0256,-7.0283,-7.0315,-7.0382,-7.0494,-7.0569,-7.0674,-7.0911,-7.0923,-7.102,-7.1053,-7.108,-7.1105,-7.1232,-7.1276,-7.081,-7.0809,-7.0809,0,0,-6.9876,-6.992,-7.0,-7.014,-7.0188,-7.0316,-7.0172,-7.0313,-7.0407,-7.0304,-7.0486,-7.0511,-7.0583,-7.0798,-7.0894,-7.0827,-7.1237,-7.1105,-7.1127,-7.1138,-7.1258,-7.1302,-7.1341,-7.0823,-7.0821,-7.0818,0,0,-7.017,-7.0216,-7.0384,-7.0436,-7.0511,-7.0512,-7.0552,-7.0612,-7.0625,-7.0807,-7.0733,-7.0842,-7.1037,-7.1091,-7.1144,-7.1458,-7.1396,-7.1493,-7.1666,-7.179,-7.1827,-7.1859,-7.1972,-7.2013,-7.1518,-7.1518,-7.1519,0,-7.0317,-7.0507,-7.0476,-7.0624,-7.0687,-7.06,-7.0769,-7.082,-7.0926,-7.0972,-7.0896,-7.1138,-7.118,-7.1406,-7.1483,-7.1528,-7.1573,-7.1486,-7.1824,-7.1856,-7.1886,-7.1993,-7.2035,-7.153,-7.1528,-7.1527,-7.1526,0,-7.0684,-7.0817,-7.0943,-7.1049,-7.1126,-7.1283,-7.1275,-7.1356,-7.1324,-7.1333,-7.1518,-7.1566,-7.1679,-7.173,-7.1699,-7.1952,-7.1909,-7.1829,-7.1694,-7.1943,-7.2043,-7.2083,-7.1546,-7.1542,-7.1538,-7.1536,0,0,-7.1082,-7.1167,-7.1215,-7.1261,-7.1338,-7.1439,-7.1591,-7.1703,-7.1774,-7.1849,-7.1976,-7.2142,-7.2069,-7.2129,-7.2103,-7.2213,-7.2459,-7.2119,-7.2121,-7.2182,-7.274,-7.2801,-7.2849,-7.2417,-7.2425,-7.2431,-7.2734,0,-7.138,-7.1647,-7.1623,-7.1876,-7.1998,-7.1917,-7.2049,-7.211,-7.2122,-7.2226,-7.2237,-7.2356,-7.225,-7.2286,-7.239,-7.2407,-7.2571,-7.2384,-7.2535,-7.254,-7.2521,-7.2901,-7.2966,-7.325,-7.2773,-7.278,-7.2784,0,-7.1765,-7.1855,-7.212,-7.2178,-7.2228,-7.2348,-7.2448,-7.2549,-7.2615,-7.2615,-7.2683,-7.2638,-7.279,-7.265,-7.2859,-7.2733,-7.2792,-7.281,-7.282,-7.2835,-7.2679,-7.2927,-7.334,-7.3384,-7.2846,-7.2841,-7.2836,0,-7.203,-7.2217,-7.24,-7.2442,-7.2513,-7.26,-7.2633,-7.2691,-7.276,-7.2846,-7.289,-7.2993,-7.305,-7.3129,-7.3113,-7.3013,-7.3326,-7.3185,-7.3331,-7.3332,-7.3402,-7.3399,-7.3833,-7.3438,-7.3438,-7.3437,-7.3436,0,-7.2367,-7.2533,-7.252,-7.2633,-7.2816,-7.2785,-7.2967,-7.2989,-7.3042,-7.3156,-7.3091,-7.32,-7.3171,-7.3278,-7.3266,-7.3441,-7.3467,-7.3471,-7.3466,-7.3478,-7.3478,-7.3518,-7.3499,-7.3448,-7.3446,-7.3443,-7.3441,0,-7.2695,-7.2693,-7.2887,-7.2939,-7.2955,-7.3088,-7.3131,-7.3237,-7.3242,-7.3388,-7.3421,-7.3429,-7.3552,-7.3543,-7.3681,-7.3673,-7.389,-7.386,-7.3868,-7.3863,-7.401,-7.3997,-7.4486,-7.4549,-7.4113,-7.4117,-7.412,0,-7.2911,-7.3037,-7.3102,-7.3175,-7.3215,-7.3332,-7.3402,-7.3376,-7.3451,-7.3535,-7.3631,-7.3748,-7.384,-7.404,-7.4058,-7.4163,-7.4137,-7.4301,-7.4152,-7.416,-7.4141,-7.4135,-7.4147,-7.4331,-7.4336,-7.434,-7.4343,0,-7.3296,-7.3288,-7.3392,-7.3496,-7.3581,-7.3661,-7.3734,-7.3796,-7.3777,-7.3865,-7.399,-7.4062,-7.4203,-7.432,-7.442,-7.4452,-7.4396,-7.4389,-7.4429,-7.4444,-7.4444,-7.4447,-7.395,-7.4379,-7.4375,-7.4373,-7.4371,-7.4369,-7.3576,-7.3684,-7.3747,-7.3864,-7.3916,-7.3985,-7.4087,-7.4105,-7.421,-7.4324,-7.4301,-7.4443,-7.4504,-7.4632,-7.4674,-7.4783,-7.4724,-7.4781,-7.4796,-7.4811,-7.4829,-7.4425,-7.4801,-7.48,-7.4799,-7.4798,-7.4797,0,-7.3958,-7.3994,-7.4102,-7.4207,-7.4299,-7.4237,-7.4313,-7.4395,-7.452,-7.4583,-7.4675,-7.4819,-7.4932,-7.4958,-7.5066,-7.5148,-7.5125,-7.5177,-7.5172,-7.518,-7.4875,-7.4831,-7.5195,-7.5194,-7.5194,-7.5194,-7.5194,-7.5194,-7.4168,-7.4348,-7.4348,-7.4552,-7.4586,-7.4725,-7.4775,-7.4838,-7.4887,-7.5052,-7.5146,-7.5162,-7.521,-7.532,-7.5421,-7.5425,-7.5468,-7.5532,-7.5527,-7.5241,-7.5202,-7.5164,-7.5122,-7.5542,-7.5542,-7.5823,-7.5826,-7.5828]}]]